Terminal Aerodrome Forecast
Issued by NWS

Home | Current Version | Previous Version | Text Only | Print | Product List | Glossary On
Versions: 1 2 3 4 5 6 7 8 9 10 11 12 13 14 15 16 17 18 19 20 21 22
355
FTUS43 KAPX 052347
TAFMBL
TAF
KMBL 052347Z 0600/0624 26005KT P6SM OVC028
     FM060200 25005KT P6SM SCT035 BKN120
     FM060700 24005KT P6SM SCT028 OVC100 WS020/24030KT
     FM060900 25009KT 4SM -SHSN OVC040
     FM061200 26010KT 2SM -SHSN OVC018
      AMD LTD TO CLD VIS AND WIND=

USA.gov is the U.S. government's official web portal to all federal, state and local government web resources and services.